Regional Weather Roundup
Issued by NWS

Home | Current Version | Previous Version | Graphics & Text | Print | Product List | Glossary Off
Versions: 1 2 3 4 5 6 7 8 9 10 11 12 13 14 15 16 17 18 19 20 21 22 23 24 25 26 27 28 29 30 31 32 33 34 35 36 37 38 39 40 41 42 43 44 45 46 47 48 49 50

973
ASUS43 KMKX 210020
RWRWI

WISCONSIN REGIONAL WEATHER ROUNDUP
NATIONAL WEATHER SERVICE MILWAUKEE/SULLIVAN WI
600 PM CST SAT JAN 20 2018

NOTE: "FAIR" INDICATES FEW OR NO CLOUDS BELOW 12,000 FEET WITH NO
SIGNIFICANT WEATHER AND/OR OBSTRUCTIONS TO VISIBILITY.

WIZ001-002-006>008-014>016-023>028-210100-
NORTHWEST WISCONSIN

CITY           SKY/WX    TMP DP  RH WIND       PRES   REMARKS
SUPERIOR ARPT  CLOUDY    35  29  78 CALM      29.88R
6HR MIN TEMP:  35; 6HR MAX TEMP:  42;

ASHLAND        FAIR      32  28  85 SW3       29.89R
6HR MIN TEMP:  32; 6HR MAX TEMP:  41;

HAYWARD        FAIR      31  27  85 SW5       29.89R WCI  26
6HR MIN TEMP:  31; 6HR MAX TEMP:  40;

SIREN          FAIR      31  28  88 CALM      29.90S
6HR MIN TEMP:  31; 6HR MAX TEMP:  40;

CUMBERLAND     FAIR      34  30  86 SW5       29.89S WCI  30
RICE LAKE      FAIR      34  31  90 S3        29.92R
6HR MIN TEMP:  32; 6HR MAX TEMP:  40;

CHETEK         FAIR      34  30  86 SE3       29.91R
LADYSMITH      CLOUDY    37  31  80 S3        29.92R
6HR MIN TEMP:  32; 6HR MAX TEMP:  38;

EAU CLAIRE     FAIR      34  30  85 CALM      29.93R
6HR MIN TEMP:  34; 6HR MAX TEMP:  39;

MENOMONIE      FAIR      35  31  87 CALM      29.93R
6HR MIN TEMP:  35; 6HR MAX TEMP:  39;

NEW RICHMOND   FAIR      34  30  84 CALM      29.92R
6HR MIN TEMP:  34; 6HR MAX TEMP:  39;

OSCEOLA        FAIR      33  32  94 CALM      29.94R
6HR MIN TEMP:  33; 6HR MAX TEMP:  39;

$$

WIZ003>005-009-010-017-018-210100-
NORTH CENTRAL WISCONSIN

CITY           SKY/WX    TMP DP  RH WIND       PRES   REMARKS
MANITOWISH WTR FAIR      32  32 100 S5        29.87R WCI  27
6HR MIN TEMP:  31; 6HR MAX TEMP:  37;

ARBOR VITAE    FAIR      33  31  91 CALM      29.88R
6HR MIN TEMP:  32; 6HR MAX TEMP:  39;

WOODRUFF       FAIR      33  31  91 CALM      29.88R
6HR MIN TEMP:  32; 6HR MAX TEMP:  39;

RHINELANDER    CLOUDY    35  30  82 CALM      29.90R
6HR MIN TEMP:  33; 6HR MAX TEMP:  37;

EAGLE RIVER    MOCLDY    29  29 100 CALM      29.88R FOG
6HR MIN TEMP:  29; 6HR MAX TEMP:  36;

LAND O LAKES     N/A     29  29  99 CALM      29.89R FOG
6HR MIN TEMP:  29; 6HR MAX TEMP:  40; 6HR PCP:  0.10;

PHILLIPS       CLOUDY    32  31  96 CALM      29.89S
6HR MIN TEMP:  29; 6HR MAX TEMP:  37;

TOMAHAWK       CLOUDY    32  29  88 CALM      29.91R
6HR MIN TEMP:  32; 6HR MAX TEMP:  37;

MEDFORD        FAIR      34  29  84 S5        29.91R WCI  30
6HR MIN TEMP:  32; 6HR MAX TEMP:  37;

MERRILL        MOCLDY    33  31  91 CALM      29.92R
6HR MIN TEMP:  34; 6HR MAX TEMP:  39;

$$

WIZ029-030-035-036-043>047-210100-
CENTRAL WISCONSIN

CITY           SKY/WX    TMP DP  RH WIND       PRES   REMARKS
WAUSAU         FAIR      37  29  72 CALM      29.90R
6HR MIN TEMP:  37; 6HR MAX TEMP:  42;

MOSINEE        MOCLDY    36  28  75 CALM      29.92R
MARSHFIELD     FAIR      34  30  85 CALM      29.91R
6HR MIN TEMP:  33; 6HR MAX TEMP:  41;

STEVENS POINT  FAIR      33  29  87 CALM      29.93R
6HR MIN TEMP:  33; 6HR MAX TEMP:  40;

WAUPACA        FAIR      36  31  80 CALM      29.93S
6HR MIN TEMP:  36; 6HR MAX TEMP:  44;

WAUTOMA        NOT AVBL
WISC RAPIDS    FAIR      34  28  79 CALM      29.93R
6HR MIN TEMP:  34; 6HR MAX TEMP:  41;

CAMP DOUGLAS   PTCLDY    32  28  86 CALM      29.92R
$$

WIZ011>013-019>022-031-037>040-048>050-210100-
NORTHEAST WISCONSIN

CITY           SKY/WX    TMP DP  RH WIND       PRES   REMARKS
ANTIGO         CLOUDY    32  30  92 CALM      29.90S
6HR MIN TEMP:  31; 6HR MAX TEMP:  36;

SHAWANO        FAIR      39  31  73 CALM      29.92S
6HR MIN TEMP:  40; 6HR MAX TEMP:  45;

OCONTO         FAIR      37  30  76 CALM      29.92S
6HR MIN TEMP:  34; 6HR MAX TEMP:  42;

STURGEON BAY   FAIR      37  29  72 S7        29.93S WCI  32
6HR MIN TEMP:  37; 6HR MAX TEMP:  40;

GREEN BAY      FAIR      37  30  75 S5        29.94R WCI  33
6HR MIN TEMP:  34; 6HR MAX TEMP:  41;

MANITOWOC      FAIR      36  30  79 S6        29.96R WCI  31
6HR MIN TEMP:  35; 6HR MAX TEMP:  43;

APPLETON       MOCLDY    36  28  75 CALM      29.92R
CLINTONVILLE   FAIR      34  28  80 CALM      29.92R
OSHKOSH        FAIR      36  30  79 CALM      29.93R
6HR MIN TEMP:  33; 6HR MAX TEMP:  44;

$$

WIZ032>034-041-042-053>061-210100-
SOUTHWEST WISCONSIN

CITY           SKY/WX    TMP DP  RH WIND       PRES   REMARKS
LA CROSSE      FAIR      34  30  85 CALM      29.93R
6HR MIN TEMP:  33; 6HR MAX TEMP:  40;

SPARTA         FAIR      31  29  90 CALM      29.94R
6HR MIN TEMP:  31; 6HR MAX TEMP:  43;

VIROQUA        FAIR      38  33  81 E5        29.91S WCI  35
6HR MIN TEMP:  38; 6HR MAX TEMP:  44;

BOSCOBEL       FAIR      37  30  75 CALM      29.93R
6HR MIN TEMP:  35; 6HR MAX TEMP:  52;

PRAIRIE DU CHI FAIR      38  30  74 CALM      29.92R
6HR MIN TEMP:  38; 6HR MAX TEMP:  49;

PLATTEVILLE    FAIR      38  33  80 S7        29.93R WCI  33
6HR MIN TEMP:  38; 6HR MAX TEMP:  46;

$$

WIZ056-057-062-063-064-067-068-210100-
SOUTH CENTRAL WISCONSIN

CITY           SKY/WX    TMP DP  RH WIND       PRES   REMARKS
REEDSBURG      FAIR      39  31  72 CALM      29.92R
6HR MIN TEMP:  38; 6HR MAX TEMP:  47;

BARABOO/DELLS  FAIR      36  29  74 CALM      29.92R
6HR MIN TEMP:  36; 6HR MAX TEMP:  47;

LONE ROCK      FAIR      38  32  79 CALM      29.93R
6HR MIN TEMP:  33; 6HR MAX TEMP:  50;

MINERAL POINT  FAIR      41  36  81 S3        29.93R
MADISON        MOCLDY    40  32  73 S3        29.95R
6HR MIN TEMP:  40; 6HR MAX TEMP:  50;

MIDDLETON      FAIR      39  32  75 CALM      29.94R
6HR MIN TEMP:  38; 6HR MAX TEMP:  52;

WATERTOWN      FAIR      32  32  99 CALM      29.93R
6HR MIN TEMP:  32; 6HR MAX TEMP:  47;

MONROE         FAIR      34  32  93 S6        29.94R WCI  29
JANESVILLE     PTCLDY    39  32  75 VRB5      29.93S
$$

WIZ051-052-058>065-066-070>072-210100-
SOUTHEAST WISCONSIN

CITY           SKY/WX    TMP DP  RH WIND       PRES   REMARKS
MILWAUKEE      FAIR      36  30  79 CALM      29.94S
6HR MIN TEMP:  36; 6HR MAX TEMP:  52;

WAUKESHA       CLEAR     36  28  75 CALM      29.94R
MILWAUKEE/TIMM CLEAR     37  28  70 CALM      29.95S
RACINE         FAIR      37  31  78 SW7       29.96R WCI  32
6HR MIN TEMP:  37; 6HR MAX TEMP:  48;

BURLINGTON     FAIR      34  29  82 S5        29.94F WCI  30
6HR MIN TEMP:  34; 6HR MAX TEMP:  47;

KENOSHA        FAIR      38  30  73 SW9       29.95R WCI  31
6HR MIN TEMP:  38; 6HR MAX TEMP:  47;

FOND DU LAC    FAIR      35  28  75 CALM      29.94R
6HR MIN TEMP:  35; 6HR MAX TEMP:  45;

SHEBOYGAN      FAIR      36  31  82 CALM      29.94R
6HR MIN TEMP:  36; 6HR MAX TEMP:  46;

WEST BEND      FAIR      37  30  75 CALM      29.95R
JUNEAU         FAIR      37  32  81 CALM      29.95R
6HR MIN TEMP:  37; 6HR MAX TEMP:  45;

$$

LSZ147-162-210100-
LAKE SUPERIOR

STATION/POSITION TIME  TEMP    WIND        PRES    WAVE
                       AIR SEA DIR/SP/G            HT/PER
                 (UTC) (F)     (DEG/KT/KT) (MB)    (FT/S)
DEVILS ISLAND    0000   38     220/  8/  9 1012.0R
SAXON HARBOR     2340   33     180/  1/  2 1011.2R
$$

LMZ867-665-643>646-210100-
LAKE MICHIGAN

STATION/POSITION TIME  TEMP    WIND        PRES    WAVE
                       AIR SEA DIR/SP/G            HT/PER
                 (UTC) (F)     (DEG/KT/KT) (MB)    (FT/S)
NORTHPORT PIER   2340   36        CALM     1013.2S
KEWAUNEE LAKESHO 2354   36     180/  5/  5 1013.1R
SHEBOYGAN LAKESH 0000   38     190/  5/  5 1014.4R
PORT WASHIN



USA.gov is the U.S. government's official web portal to all federal, state and local government web resources and services.